sat.trackr.live / text

‹ back to catalog

STARLINK-31736

NORAD 59547 · 2024-074P

PAYLOAD ACTIVE UNKNOWN

§ Identity

Operator
Country
US
Launch date
2024-04-18
Launch site
AFETR
Launch vehicle
Mass (kg)
RCS (m²)

Purposes: comms

External: N2YO · Heavens-Above · Gunter

§ Orbital elements

Epoch: 2026-05-24T19:01:51.219552Z

Period
94.27 min
Inclination
43.0060°
Eccentricity
0.0002815
Mean motion
15.27581021 rev/d
Perigee alt
481.1 km
Apogee alt
485.0 km
Semi-major
6,861.2 km
B*
-1.1250e-5
RAAN
266.7835°
Arg perigee
286.9727°
Mean anomaly
73.0816°
Rev number
11,773

§ Raw data

STARLINK-317361 59547U 24074P   26144.79295393 -.00000572  00000+0 -11250-4 0  99992 59547  43.0060 266.7835 0002815 286.9727  73.0816 15.27581021117735

JSON: /api/v1/satellites/59547 · /tle

For live sub-satellite position, see the globe view (requires WebGL).

§ Visibility from observer

Set your observer location to see the next 7 days of passes ≥ 10°. The values pass through the URL so the page stays shareable.

No JS? Fill the form by hand. The geolocation button needs JavaScript.